TimePST,TemperatureF,Dew PointF,Humidity,Sea Level PressureIn,VisibilityMPH,Wind Direction,Wind SpeedMPH,Gust SpeedMPH,PrecipitationIn,Events,Conditions,WindDirDegrees,DateUTC
12:00 AM,33.8,33.8,100,30.30,30.0,WNW,2.3,-,N/A,,Partly Cloudy,290,2012-11-26 08:00:00
1:00 AM,33.8,33.8,100,30.27,30.0,WSW,4.6,-,N/A,,Mostly Cloudy,250,2012-11-26 09:00:00
2:00 AM,32.0,32.0,100,30.26,30.0,West,3.5,-,N/A,,Partly Cloudy,270,2012-11-26 10:00:00
3:00 AM,32.0,32.0,100,30.25,30.0,West,4.6,-,N/A,,Partly Cloudy,270,2012-11-26 11:00:00
4:00 AM,32,31,95,30.24,28,West,3.5,,,,Scattered Clouds,280,2012-11-26 12:00:00
4:00 AM,32.0,32.0,100,30.24,30.0,West,4.6,-,N/A,,Partly Cloudy,270,2012-11-26 12:00:00
5:00 AM,32.0,30.2,93,30.22,30.0,NW,4.6,-,N/A,,Partly Cloudy,310,2012-11-26 13:00:00
6:00 AM,33.8,32.0,93,30.22,30.0,West,3.5,-,N/A,,Partly Cloudy,270,2012-11-26 14:00:00
7:00 AM,32.0,32.0,100,30.21,30.0,West,5.8,-,N/A,,Scattered Clouds,280,2012-11-26 15:00:00
8:00 AM,32.0,32.0,100,30.18,30.0,West,3.5,-,N/A,,Mostly Cloudy,260,2012-11-26 16:00:00
9:00 AM,35.6,33.8,93,30.19,30.0,WNW,5.8,-,N/A,,Mostly Cloudy,290,2012-11-26 17:00:00
10:00 AM,39,36,85,30.18,28,WNW,6.9,,,,Scattered Clouds,290,2012-11-26 18:00:00
10:00 AM,39.2,35.6,87,30.18,30.0,WNW,6.9,-,N/A,,Mostly Cloudy,300,2012-11-26 18:00:00
11:00 AM,41.0,35.6,81,30.17,30.0,WNW,8.1,-,N/A,,Mostly Cloudy,290,2012-11-26 19:00:00
12:00 PM,42.8,37.4,81,30.15,30.0,North,6.9,-,N/A,,Mostly Cloudy,10,2012-11-26 20:00:00
1:00 PM,42.8,37.4,81,30.14,30.0,NW,6.9,-,N/A,,Mostly Cloudy,320,2012-11-26 21:00:00
2:00 PM,42.8,37.4,81,30.12,30.0,North,3.5,-,N/A,,Mostly Cloudy,360,2012-11-26 22:00:00
3:00 PM,42.8,33.8,70,30.12,30.0,North,5.8,-,N/A,,Mostly Cloudy,10,2012-11-26 23:00:00
4:00 PM,41,33,66,30.11,28,NNW,4.6,,,,Scattered Clouds,330,2012-11-27 00:00:00
4:00 PM,41.0,33.8,76,30.11,30.0,NNW,3.5,-,N/A,,Mostly Cloudy,330,2012-11-27 00:00:00
5:00 PM,35.6,33.8,93,30.10,30.0,West,2.3,-,N/A,,Mostly Cloudy,270,2012-11-27 01:00:00
6:00 PM,35.6,33.8,93,30.10,30.0,West,4.6,-,N/A,,Mostly Cloudy,270,2012-11-27 02:00:00
7:00 PM,33.8,32.0,93,30.10,30.0,West,4.6,-,N/A,,Overcast,270,2012-11-27 03:00:00
8:00 PM,35.6,32.0,87,30.10,30.0,West,4.6,-,N/A,,Mostly Cloudy,280,2012-11-27 04:00:00
9:00 PM,33.8,32.0,93,30.10,30.0,West,4.6,-,N/A,,Mostly Cloudy,260,2012-11-27 05:00:00
10:00 PM,35,33,89,30.12,28,West,5.8,,,,Scattered Clouds,260,2012-11-27 06:00:00
10:00 PM,35.6,33.8,93,30.12,30.0,West,5.8,-,N/A,,Mostly Cloudy,260,2012-11-27 06:00:00
11:00 PM,35.6,32.0,87,30.12,30.0,West,4.6,-,N/A,,Mostly Cloudy,270,2012-11-27 07:00:00